Regional Weather Roundup
Issued by NWS Cleveland, OH

Home | Current Version | Previous Version | Graphics & Text | Print | Product List | Glossary On
Versions: 1 2 3 4 5 6 7 8 9 10 11 12 13 14 15 16 17 18 19 20 21 22 23 24 25 26 27 28 29 30 31 32 33 34 35 36 37 38 39 40 41 42 43 44 45 46 47 48 49 50
000
ASUS41 KCLE 221910
RWRCLE
OHIO REGIONAL WEATHER ROUNDUP
NATIONAL WEATHER SERVICE WILMINGTON, OH
300 PM EDT WED MAR 22 2017

NOTE: "FAIR" INDICATES FEW OR NO CLOUDS BELOW 12,000 FEET WITH NO
SIGNIFICANT WEATHER AND/OR OBSTRUCTIONS TO VISIBILITY.

OHZ001>008-015>018-024>027-034-035-043-044-222000-
   NORTHWEST OHIO

CITY           SKY/WX    TMP DP  RH WIND       PRES   REMARKS
DEFIANCE       FAIR      33  13  43 N8        30.55F WCI  26
FINDLAY        FAIR      35  14  42 N6G18     30.52F
TOLEDO EXPRESS FAIR      35  11  36 NE8       30.54F WCI  29
TOLEDO EXEC    FAIR      32  15  49 VRB6      30.57F WCI  26
LIMA           FAIR      33  16  49 NE6       30.51F WCI  28
$$

OHZ009>014-019>023-028>033-038-089-222000-
   NORTHEAST OHIO

CITY           SKY/WX    TMP DP  RH WIND       PRES   REMARKS
CLE-HOPKINS    FAIR      32  13  45 N13G18    30.56F WCI  22
CLE-LAKEFRONT  FAIR      29  15  56 N8        30.54F WCI  21
CUY CO. ARPT   MOSUNNY   30  14  51 CALM      30.53F
LORAIN-ELYRIA  FAIR      29  13  51 N10G20    30.54F WCI  20
ASHTABULA      FAIR      27   9  46 N8        30.51F WCI  19
AKRON-CANTON   FAIR      35  12  38 N13       30.46F WCI  26
WOOSTER        FAIR      33  16  49 N14       30.48F WCI  23
MANSFIELD      FAIR      31  18  58 N8G17     30.48F WCI  23
YOUNGSTOWN     FAIR      32   9  38 N12G20    30.46F WCI  23
$$

OHZ042-051>053-060>062-070>072-077>081-222000-
  SOUTHWEST OHIO

CITY           SKY/WX    TMP DP  RH WIND       PRES   REMARKS
CINC-COVINGTON FAIR      40  16  37 NE16      30.46F
CINC-LUNKEN    FAIR      41  21  44 NE17      30.50F
HAMILTON       FAIR      41  21  44 NE9       30.50F
DAYTON         FAIR      35  18  49 NE10      30.51F WCI  27
WRIGHT-PAT AFB FAIR      36  16  43 NE10      30.50F
DAYTON GENERAL FAIR      38  18  44 NE9G17    30.48F
WILMINGTON     FAIR      35  23  61 NE10G21   30.47F WCI  27
$$

OHZ036-037-039>041-045>050-054>059-063>069-073>076-082>088-222000-
  CENTRAL AND SOUTHEAST OHIO

CITY           SKY/WX    TMP DP  RH WIND       PRES   REMARKS
COLUMBUS       FAIR      39  17  41 NE12G23   30.49F
OSU AIRPORT    FAIR      36  16  44 NE12      30.49F
BOLTON FIELD   SUNNY     36  18  48 NE12      30.49F
RICKENBACK AFB FAIR      37  16  43 NE12      30.48F
NEWARK         FAIR      37  15  40 N9        30.47F
MARION         FAIR      34  17  50 NE15G21   30.51F WCI  24
LANCASTER      FAIR      40  19  43 NE8       30.49F
ZANESVILLE     FAIR      38  16  40 VRB7      30.47F
NEW PHILLY     FAIR      37  14  38 NW7       30.46F
$$



USA.gov is the U.S. government's official web portal to all federal, state and local government web resources and services.